TIME,DELAY(SENSOR),PRES,T(CTD),SAL,OXYGEN,RAWTEMP,T(OPTODE),TCPHASE,TURBIDITY,TURBIDITY_GAIN,FLUOR,BETA,CDOM,ED411.5,ED443.8,ED489.6,PAR,COMP,TILT,TILTY(TILT),CHECK
1341982505,6468,248.1399993896484400,4.9127001762390140,34.9864006042480500,349.6465148925781000,761.4780883789062000,4.8845348358154300,34.1157112121582000,16,3,49,106,64,2147245723,2147561554,2147571414,2147361298,813,0,-12,38813
1341982566,6469,244.8600006103515600,4.9124999046325680,34.9864997863769500,349.7160949707031000,761.4721069335938000,4.8847470283508300,34.1132507324218750,16,3,48,106,65,2147247583,2147561686,2147572017,2147361334,488,0,-12,62704
1341982627,6467,241.5500030517578000,4.9123997688293460,34.9863014221191400,349.6290893554687500,761.4719848632812000,4.8847479820251465,34.1158981323242200,16,3,50,104,64,2147243039,2147559108,2147571053,2147361736,123,0,-12,59639
1341982688,6469,238.1300048828125000,4.9121999740600590,34.9861984252929700,349.6481018066406000,761.4758300781250000,4.8846168518066410,34.1155204772949200,16,3,48,103,64,2147246372,2147563547,2147568355,2147361279,3359,0,-12,62749
1341982749,6467,234.6999969482422000,4.9120001792907715,34.9860992431640600,349.6604003906250000,761.4799804687500000,4.8844680786132810,34.1152610778808600,16,3,50,105,64,2147243140,2147558326,2147569462,2147362006,3017,0,-12,43331
1341982811,6502,231.2299957275390600,4.9117999076843260,34.9860000610351560,349.7448120117187500,761.4882812500000000,4.8841781616210940,34.1123695373535160,16,3,48,103,64,2147242728,2147559048,2147570070,2147358047,2663,0,-12,15455
1341982872,6467,227.8200073242187500,4.9116997718811035,34.9858016967773440,349.8760986328125000,761.4954223632812000,4.8839278221130370,34.1083984375000000,16,3,48,103,64,2147243752,2147560333,2147569713,2147361810,2353,0,-12,20917
1341982933,6469,224.4499969482422000,4.9116997718811035,34.9858016967773440,349.7629089355469000,761.4984130859375000,4.8838248252868650,34.1121101379394500,16,3,49,104,64,2147242349,2147559450,2147571766,2147358088,2096,0,-12,59090
1341982994,6469,221.1199951171875000,4.9114999771118160,34.9856986999511700,349.8483886718750000,761.5032958984375000,4.8836541175842285,34.1090888977050800,16,3,49,105,64,2147239337,2147557828,2147568822,2147359843,1920,0,-12,31655
1341983059,6469,217.6199951171875000,4.9102997779846190,34.9866981506347660,349.8890991210937500,761.5137939453125000,4.8832859992980960,34.1082496643066400,16,3,48,104,64,2147244196,2147560429,2147570285,2147360114,1648,0,-12,24349
1341983123,6468,214.1499938964843800,4.9105000495910645,34.9861984252929700,349.8781127929687500,761.5192260742188000,4.8830947875976560,34.1087608337402340,16,3,50,102,64,2147244218,2147559012,2147569161,2147359172,1450,0,-12,17351
1341983184,6468,210.8899993896484400,4.9100999832153320,34.9864997863769500,349.8630065917969000,761.5261230468750000,4.8828539848327640,34.1093215942382800,16,3,49,111,64,2147244086,2147561280,2147569151,2147359300,1271,0,-12,25170
1341983247,6467,207.6199951171875000,4.9102001190185550,34.9860000610351560,349.9932861328125000,761.5349731445312000,4.8825421333312990,34.1052398681640600,16,3,50,104,63,2147242559,2147560155,2147570971,2147360223,1094,0,-12,7702
1341983308,6468,204.5500030517578000,4.9095001220703125,34.9864006042480500,350.1235046386719000,761.5401000976562000,4.8823637962341310,34.1008415222168000,16,3,50,106,64,2147244726,2147558966,2147569475,2147363898,778,0,-12,42144
1341983371,6468,201.4100036621093800,4.9095997810363770,34.9861984252929700,350.0327148437500000,761.5446166992188000,4.8822059631347660,34.1040992736816400,16,3,49,107,64,2147246523,2147558339,2147572008,2147356863,442,0,-12,20077
1341983432,6468,198.4400024414062500,4.9096999168396000,34.9858016967773440,350.0220031738281000,761.5494995117188000,4.8820362091064450,34.1044807434082000,16,3,49,102,64,2147242865,2147559423,2147569632,2147358522,42,0,-12,1867
1341983495,6468,195.4499969482422000,4.9092001914978030,34.9863014221191400,350.0278015136719000,761.5543823242188000,4.8818631172180180,34.1043891906738300,16,3,49,104,64,2147245243,2147557174,2147568931,2147359629,3334,0,-12,11342
1341983556,6468,192.6100006103515600,4.9088997840881350,34.9864997863769500,350.0726928710937500,761.5587768554688000,4.8817100524902340,34.1028099060058600,16,3,50,105,64,2147246454,2147557814,2147568378,2147360136,2985,0,-12,48350
1341983619,6467,189.7100067138672000,4.9092998504638670,34.9858016967773440,350.0278930664062500,761.5629272460938000,4.8815670013427730,34.1044006347656250,16,3,48,101,64,2147246710,2147561169,2147569188,2147361238,2761,0,-12,35315
1341983680,6465,186.9199981689453000,4.9085998535156250,34.9864006042480500,349.9598083496094000,761.5664062500000000,4.8814430236816410,34.1067314147949200,10,3,48,112,65,2147244968,2147562308,2147568205,2147363519,2518,0,-12,3553
1341983744,6465,184.0299987792968800,4.9085001945495605,34.9861984252929700,350.0906982421875000,761.5734252929688000,4.8811988830566410,34.1025581359863300,16,3,49,105,64,2147245805,2147559523,2147571734,2147359945,2272,0,-12,21337
1341983805,6469,181.3099975585937500,4.9086999893188480,34.9859008789062500,350.0085144042969000,761.5764770507812000,4.8810877799987790,34.1054115295410160,16,3,49,112,64,2147244410,2147559995,2147569247,2147358116,2049,0,-12,64246
1341983868,6504,178.5299987792968800,4.9081001281738280,34.9864006042480500,350.0137023925781000,761.5822753906250000,4.8808841705322270,34.1051406860351560,15,3,48,103,63,2147244960,2147558157,2147570134,2147363017,1850,0,-12,23251
1341983929,6469,175.9100036621093800,4.9078998565673830,34.9861984252929700,350.0679016113281000,761.5864257812500000,4.8807449340820310,34.1034889221191400,16,3,49,108,64,2147243104,2147560154,2147569613,2147362477,1632,0,-12,32835
1341983992,6468,173.2100067138672000,4.9077000617980960,34.9864997863769500,350.1465148925781000,761.5905151367188000,4.8805999755859375,34.1011390686035160,10,3,49,105,64,2147243236,2147555647,2147568246,2147362134,1406,0,-12,16828
1341984053,6469,170.6000061035156200,4.9072999954223630,34.9865989685058600,350.1086120605469000,761.5983886718750000,4.8803229331970215,34.1024589538574200,16,3,49,104,64,2147243885,2147562779,2147572045,2147362523,1173,0,-12,30700
1341984116,6467,167.9600067138672000,4.9077000617980960,34.9859008789062500,350.1325073242187500,761.6041870117188000,4.8801188468933105,34.1016197204589840,16,3,48,104,64,2147245037,2147560333,2147570454,2147362065,871,0,-12,62718
1341984177,6468,165.4600067138672000,4.9074001312255860,34.9860992431640600,350.0916137695312500,761.6055908203125000,4.8800721168518070,34.1029891967773440,16,3,48,104,64,2147245316,2147559003,2147571355,2147363222,587,0,-12,36667
1341984240,6468,162.9100036621093800,4.9078001976013180,34.9852981567382800,350.0643005371094000,761.6102294921875000,4.8799109458923340,34.1040916442871100,16,3,50,114,64,2147245160,2147558847,2147571890,2147363341,203,0,-12,55868
1341984301,6467,160.4799957275390600,4.9068999290466310,34.9863014221191400,350.0479125976562500,761.6143798828125000,4.8797612190246580,34.1048698425293000,16,3,49,120,64,2147245453,2147557512,2147572274,2147364634,3520,0,-12,8063
1341984392,6468,156.1900024414062500,4.9065999984741210,34.9861984252929700,350.0440063476562500,761.6343994140625000,4.8790612220764160,34.1053390502929700,16,3,48,109,64,2147244433,2147555619,2147570770,2147365032,2931,0,-12,42766
1341984453,6468,152.4499969482422000,4.9070000648498535,34.9859008789062500,350.0557861328125000,761.6394042968750000,4.8788871765136720,34.1048393249511700,16,3,49,110,65,2147241672,2147560278,2147571327,2147364155,2586,0,-12,63097
1341984516,6466,148.6799926757812500,4.9065999984741210,34.9859008789062500,350.1166076660156000,761.6444091796875000,4.8787140846252440,34.1030387878418000,16,3,50,110,64,2147245938,2147556369,2147572854,2147363634,2318,0,-12,4834
1341984577,6467,145.0599975585937500,4.9056000709533690,34.9868011474609400,350.2091064453125000,761.6470947265625000,4.8786177635192870,34.0998992919921900,16,3,50,116,64,2147243981,2147557385,2147573590,2147361503,2070,0,-12,6530
1341984640,6504,141.3800048828125000,4.9064998626708980,34.9860992431640600,350.0913085937500000,761.6417846679688000,4.8788027763366700,34.1040496826171900,16,3,50,112,64,2147245458,2147559386,2147568383,2147363762,1829,0,-12,57192
1341984701,6466,137.8699951171875000,4.9068999290466310,34.9859008789062500,350.0867004394531000,761.6337890625000000,4.8790841102600100,34.1040115356445300,16,3,50,113,64,2147242239,2147558911,2147572333,2147362198,1705,0,-12,26473
1341984764,6468,134.3200073242187500,4.9070000648498535,34.9860000610351560,349.9231872558594000,761.6259155273438000,4.8793578147888180,34.1094093322753900,16,3,50,114,64,2147241727,2147559971,2147572483,2147361302,1594,0,-12,60468
1341984825,6465,130.9499969482422000,4.9074001312255860,34.9860000610351560,349.8151855468750000,761.6121826171875000,4.8798389434814450,34.1125984191894500,73,3,50,112,64,2147242956,2147558655,2147572740,2147361521,1456,0,-12,9254
1341984888,6466,127.5800018310546900,4.9072999954223630,34.9864997863769500,349.7668151855469000,761.6038818359375000,4.8801331520080570,34.1142807006835940,16,3,48,114,64,2147244658,2147558418,2147573672,2147363647,1211,0,-12,19395
1341984949,6467,124.2699966430664000,4.9077000617980960,34.9859008789062500,349.6481018066406000,761.6049194335938000,4.8800978660583500,34.1183204650878900,16,3,50,119,64,2147243414,2147563012,2147573448,2147363176,919,0,-12,48358
1341985013,6468,120.6999969482421900,4.9078001976013180,34.9856986999511700,349.5505981445312500,761.6026000976562000,4.8801770210266110,34.1211700439453100,16,3,50,116,64,2147238957,2147559208,2147572305,2147362413,595,0,-12,49450
1341985074,6468,117.1699981689453100,4.9086999893188480,34.9860992431640600,349.5903015136719000,761.5798950195312000,4.8809719085693360,34.1193618774414060,16,3,48,132,64,2147245929,2147558605,2147571972,2147363414,355,0,-12,17266
1341985137,6467,113.3799972534179700,4.9113001823425290,34.9856986999511700,349.5497131347656000,761.5006713867188000,4.8837428092956540,34.1193809509277340,16,3,49,122,64,2147241119,2147557855,2147575395,2147363240,22,0,-12,13003
1341985198,6469,109.5599975585937500,4.9128999710083010,34.9856986999511700,349.3407897949219000,761.4517822265625000,4.8854541778564450,34.1257095336914060,16,3,49,120,64,2147247514,2147560219,2147578093,2147361778,3296,0,-12,58406
1341985286,6465,104.4700012207031200,4.9169998168945310,34.9854011535644500,349.2567138671875000,761.3458251953125000,4.8891677856445310,34.1261901855468750,16,3,50,119,64,2147247930,2147560795,2147578952,2147362984,3080,0,-12,47511
1341985347,6468,101.7200012207031200,4.9183001518249510,34.9847984313964840,349.2424011230469000,761.3084716796875000,4.8904709815979000,34.1258583068847660,16,3,50,126,65,2147243921,2147561019,2147579264,2147363007,2914,0,-12,48555
1341985410,6503,98.9899978637695300,4.9187002182006840,34.9856986999511700,349.1155090332031000,761.2730712890625000,4.8917140960693360,34.1296501159668000,16,3,50,125,64,2147246125,2147563986,2147581257,2147362486,2684,0,-12,28703
1341985471,6468,96.2699966430664000,4.9203000068664550,34.9850006103515600,348.9827880859375000,761.2268066406250000,4.8933329582214355,34.1330909729003900,12,3,50,116,64,2147246523,2147561160,2147584937,2147364639,2467,0,-12,40230
1341985534,6466,93.5299987792968800,4.9284000396728520,34.9850006103515600,348.9421997070312500,761.0264892578125000,4.9003448486328125,34.1306800842285160,16,3,50,123,64,2147246107,2147560040,2147589865,2147364982,2420,0,-12,29364
1341985595,6467,90.9400024414062500,4.9278001785278320,34.9855995178222660,349.0967102050781000,761.0059204101562000,4.9010658264160160,34.1249198913574200,16,3,50,120,64,2147244566,2147564649,2147594765,2147366806,2302,0,-12,42428
1341985659,6468,88.2799987792968800,4.9285998344421390,34.9854011535644500,348.8507995605469000,760.9857177734375000,4.9017748832702640,34.1328086853027340,16,3,52,123,65,2147245243,2147561690,2147602591,2147367218,2253,0,-12,64654
1341985720,6467,85.7500000000000000,4.9293999671936035,34.9850997924804700,349.0914001464844000,760.9746704101562000,4.9021611213684080,34.1244010925293000,16,3,50,120,64,2147244214,2147565869,2147612886,2147368736,2150,0,-12,49856
1341985783,6468,83.1900024414062500,4.9310002326965330,34.9852981567382800,349.0203857421875000,760.9221801757812000,4.9039959907531740,34.1259613037109400,16,3,51,121,64,2147245320,2147567884,2147621430,2147370349,1926,0,-12,913
1341985844,6465,80.7600021362304700,4.9369001388549805,34.9851989746093750,348.8879089355469000,760.7835083007812000,4.9088501930236820,34.1273689270019500,16,3,51,126,66,2147244438,2147570193,2147624854,2147371953,1703,0,-12,41453
1341985932,6468,76.5800018310546900,4.9478998184204100,34.9851989746093750,348.7703857421875000,760.4310302734375000,4.9211850166320800,34.1246490478515600,16,3,52,129,65,2147246788,2147570107,2147635917,2147374961,1204,0,-12,39378
1341985993,6467,72.7300033569336000,4.9608998298645020,34.9845008850097660,348.5906066894531000,760.0994873046875000,4.9327912330627440,34.1241188049316400,16,3,52,127,64,2147246193,2147573339,2147644580,2147376159,1024,0,-12,37203
1341986056,6469,68.8399963378906200,4.9710001945495605,34.9852981567382800,348.4859924316406000,759.7307739257812000,4.9456877708435060,34.1202812194824200,16,3,54,132,64,2147248612,2147571816,2147646806,2147378258,632,0,-12,59533
1341986117,6468,65.1900024414062500,4.9979000091552730,34.9851989746093750,348.3377990722656000,759.0211791992188000,4.9705119132995605,34.1111106872558600,15,3,56,133,64,2147245284,2147578075,2147666121,2147383930,395,0,-12,954
1341986180,6467,61.5400009155273440,5.0458002090454100,34.9855003356933600,348.0079040527344000,757.7852783203125000,5.0137228965759280,34.0980911254882800,16,3,58,135,66,2147249558,2147584516,2147679149,2147386975,146,0,-12,40602
1341986241,6467,58.1800003051757800,5.0735998153686520,34.9859008789062500,348.0638122558594000,756.9818115234375000,5.0418090820312500,34.0802612304687500,13,3,62,138,64,2147254513,2147586042,2147687999,2147390985,3122,0,-12,15983
1341986305,6467,54.6599998474121100,5.1173000335693360,34.9870986938476560,347.7974853515625000,755.5526733398438000,5.0917282104492190,34.0611114501953100,16,3,68,138,66,2147258367,2147593873,2147711418,2147398225,2561,0,-12,51465
1341986366,6467,51.2400016784668000,5.2416000366210940,34.9905014038085940,347.5336914062500000,752.4782714843750000,5.1990242004394530,34.0098304748535160,16,3,82,156,66,2147259254,2147601462,2147737773,2147406930,2551,0,-12,38281
1341986429,6469,47.6699981689453100,5.2892999649047850,34.9920997619628900,347.8873901367187500,750.7916870117188000,5.2578258514404300,33.9649505615234400,16,3,101,153,66,2147263903,2147618349,2147786898,2147420881,2580,0,-12,17896
1341986490,6470,43.9500007629394500,5.3218998908996580,34.9936981201171900,348.4117126464844000,749.8339233398438000,5.2912011146545410,33.9286499023437500,63,3,112,158,66,2147274596,2147638243,2147846591,2147443601,2408,0,-12,47375
1341986578,6470,39.0699996948242200,5.4668998718261720,34.9948997497558600,348.5533142089844000,746.6771850585938000,5.4011039733886720,33.8624687194824200,21,3,150,313,66,2147295282,2147675715,2147939235,2147474907,1923,0,-11,50564
1341986639,6468,36.9500007629394500,5.5364999771118160,34.9981002807617200,349.1268005371094000,744.5427856445312000,5.4753270149230960,33.8019790649414060,23,3,211,208,66,2147315126,2147714943,2148030440,2147507729,1189,0,-12,12957
1341986714,6470,35.4900016784668000,5.6020998954772950,34.9989013671875000,350.1193847656250000,742.1345214843750000,5.5589962005615230,33.7222709655761700,26,3,242,246,66,2147333376,2147750033,2148154559,2147555264,833,0,-12,54800
1341986850,6469,32.5499992370605500,5.7031002044677730,35.0008010864257800,352.3348999023437500,738.8543701171875000,5.6728210449218750,33.5852508544921900,32,3,266,272,65,2147387583,2147832251,2148316955,2147616768,584,0,-12,2643
1341986911,6470,29.7000007629394530,5.7277002334594730,35.0033988952636700,353.8164062500000000,738.1812133789062000,5.6961607933044430,33.5233192443847660,44,3,277,292,66,2147459053,2147930884,2148515423,2147696662,3337,0,-12,27291
1341986974,6471,26.7099990844726560,5.7589998245239260,35.0040016174316400,354.3590087890625000,736.9147949218750000,5.7400550842285160,33.4811515808105500,32,3,288,291,66,2147557041,2148055346,2148732236,2147795820,3233,0,-10,16837
1341987035,6469,24.1700000762939450,5.9573998451232910,35.0026016235351560,355.2701110839844000,731.7266845703125000,5.9196281433105470,33.3529815673828100,46,3,365,395,65,2147717252,2148250811,2149098267,2147960246,3203,0,-11,63879
1341987098,6503,21.8600006103515620,6.1482000350952150,35.0046997070312500,358.0676879882812500,726.3707275390625000,6.1046090126037600,33.1611404418945300,56,3,414,432,66,2147905494,2148450121,2149403935,2148105184,2650,0,-10,55463
1341987159,6469,19.7800006866455080,6.8116002082824710,35.0010986328125000,361.2907104492187500,708.4992065429688000,6.7189431190490720,32.7276992797851560,77,3,601,595,66,2148162582,2148717151,2149765188,2148269859,1955,0,-11,28368
1341987250,6503,17.7900009155273440,7.6465997695922850,35.0050010681152340,372.4782104492187500,683.7025146484375000,7.5641779899597170,31.9364490509033200,89,3,777,696,66,2148808794,2149468886,2151003021,2148835990,1870,0,-12,11084
1341987311,6471,16.6000003814697270,9.3593997955322270,35.0022010803222660,368.3652954101562500,636.5354003906250000,9.1504573822021480,31.2641105651855470,96,3,884,629,64,2149193686,2149903195,2151639702,2149125585,2306,0,-10,42849
1341987439,6469,14.2799997329711910,10.8554000854492190,35.0355987548828100,362.2528991699219000,587.4752197265625000,10.7732200622558600,30.6681194305419920,84,3,820,540,62,2150183290,2151051382,2153212177,2149877197,2511,1,-12,6558
1341987544,6470,11.0399999618530270,11.0684995651245120,35.0539016723632800,358.2261047363281000,579.2609863281250000,11.0424499511718750,30.6653804779052730,84,3,767,501,62,2152785439,2153800566,2156065696,2151335807,1698,9,-9,12175
1341987605,6471,7.6700000762939450,11.0741996765136720,35.0559005737304700,357.3843994140625000,578.7894897460938000,11.0578804016113280,30.6842708587646500,109,3,750,492,62,2156664388,2157954084,2160552521,2153907926,1385,-7,-8,31295
1341987660,6471,4.9499998092651370,11.0776996612548830,35.0573005676269500,357.3194885253906000,578.3021240234375000,11.0738296508789060,30.6787700653076170,97,3,735,493,63,2162352457,2164073347,2166920246,2158157348,1420,-1,-10,6507
1341987707,6447,3.7300000190734863,0.0000000000000000,0.0000000000000000,357.1488952636719000,578.2022094726562000,11.0770998001098630,30.6825695037841800,81,3,717,475,62,2165498015,2167346998,2169907322,2160704063,1628,8,-4,607
1341987749,6470,1.7400000095367432,0.0000000000000000,0.0000000000000000,357.5582885742187500,578.5202026367188000,11.0666904449462890,30.6745395660400400,87,3,692,478,61,2173011057,2174860616,2175947949,2167423606,1398,11,-5,64485
